User: anonymous
Location: Hickory_CSC
(35.7330°N, 81.3330°W)
Time: 17:23:20
(UTC-04:00)
Language:

Cosmos 1356 Rocket - Orbit

View from above orbital plane
View from above orbital plane
View from above satellite
View from above satellite

Ground track
Ground track

The orbit data is extracted from the following two-line orbital elements,

1 13154U 82039B   14107.11145212  .00002378  00000-0  20704-3 0  2579
2 13154 081.1835 095.0235 0043581 093.6395 266.9808 14.95845601730576
Epoch (UTC): 17 April 2014 02:40:29
Eccentricity: 0.0043581
inclination: 81.1835°
perigee height: 549 km
apogee height: 610 km
right ascension of ascending node: 95.0235°
argument of perigee: 93.6395°
revolutions per day: 14.95845601
mean anomaly at epoch: 266.9808°
orbit number at epoch: 73057

The dashed part of the orbit path shows where the satellite is in the earth's shadow,  

DLR